[[{"header":{"parameterUnit":"m.s-1","parameterCategory":1,"la1":30.2991,"la2":30.254,"lo1":-89.0895,"lo2":-89.0444,"dy":0.0017,"dx":0.0017,"nx":28,"ny":28,"refTime":"2023-09-19T21:00:00:Z","depth":0,"parameterNumber":2,"parameterNumberName":"U-component_of_WINDS"},"data":[0,0,0,0,0,0,0,0,0,0,0,0,0,0,0,0,0,0,0,0,0,0,0,0,0,0,0,0,0,0,0,0,0,0,0,0,0,0,0,0,0,0,0,0,0,0,0,0,0,0,0,0,0,0,0,0,0,0,-1.9446,-1.9445,0,-1.9369,-1.9368,-1.9367,-1.9251,-1.9249,-1.9247,-1.9245,-1.917,-1.917,-1.917,0,0,0,0,0,0,0,0,0,0,0,0,0,-1.9499,-1.9499,-1.9446,-1.9445,-1.9444,-1.9369,-1.9368,-1.9367,-1.9251,-1.9249,-1.9246,-1.9244,-1.917,-1.917,-1.917,0,0,0,0,0,0,0,0,0,0,0,0,0,-1.9455,-1.9499,-1.9446,-1.9377,-1.937,-1.9369,-1.9368,-1.9366,-1.9252,-1.9248,-1.9245,-1.9243,-1.917,-1.917,-1.917,-1.9231,0,0,-1.917,-1.917,0,0,0,0,0,0,0,0,-1.9457,-1.9453,-1.9388,-1.9382,-1.9374,-1.9316,-1.9359,-1.9321,-1.9252,-1.9297,-1.9245,-1.9241,-1.9221,-1.9217,-1.9209,-1.9228,-1.9224,-1.917,-1.9169,-1.9169,-1.9169,0,0,0,0,0,0,0,-1.9461,-1.9456,-1.9416,-1.9388,-1.9379,-1.9352,-1.9342,-1.9351,-1.9278,-1.9293,-1.9284,-1.9276,-1.9217,-1.921,-1.9207,-1.9223,-1.917,-1.9169,-1.9169,-1.9169,-1.929,-1.9293,0,0,0,0,0,0,-1.9473,-1.9459,-1.9418,-1.9413,-1.9409,-1.9354,-1.9343,-1.9338,-1.9277,-1.9265,-1.9279,-1.9271,-1.9211,-1.9207,-1.9204,-1.9272,-1.9169,-1.9169,-1.9169,-1.9286,-1.929,-1.9294,0,0,0,0,0,0,-1.9475,-1.9471,-1.9421,-1.9434,-1.9425,-1.9356,-1.9352,-1.9338,-1.933,-1.9267,-1.9253,-1.9285,-1.9209,-1.9204,-1.9225,-1.9268,-1.9169,-1.9169,-1.9283,-1.9288,-1.9292,-1.9409,0,0,0,0,0,0,-1.9477,-1.9472,-1.9493,-1.9435,-1.9425,-1.9443,-1.9354,-1.9339,-1.933,-1.9319,-1.9268,-1.9257,-1.9206,-1.9226,-1.9225,-1.9266,-1.9169,-1.9278,-1.9285,-1.9291,-1.9401,-1.9417,-1.9431,0,0,0,0,0,-1.9479,-1.953,-1.9495,-1.949,-1.945,-1.9445,-1.944,-1.9378,-1.9334,-1.9356,-1.9315,-1.9259,-1.9263,-1.9229,-1.9227,-1.9269,-1.9275,-1.9283,-1.929,-1.9394,-1.9414,-1.9431,0,0,0,0,0,0,-1.9596,-1.9521,-1.9481,-1.9514,-1.9487,-1.9426,-1.9451,-1.9401,-1.9387,-1.9377,-1.9303,-1.9293,-1.9324,-1.9298,-1.9262,-1.9325,-1.9261,-1.9268,-1.9341,-1.9359,-1.9374,-1.938,-1.9169,0,0,0,0,0,-1.9626,-1.9627,-1.9561,-1.9597,-1.9585,-1.9521,-1.9517,-1.9472,-1.9441,-1.9429,-1.939,-1.9364,-1.9359,-1.9358,-1.935,-1.9397,-1.9385,-1.9425,-1.944,-1.9453,-1.946,-1.9484,-1.9502,-1.9318,-1.9318,-1.9318,0,0,-1.9687,-1.9646,-1.9651,-1.962,-1.9593,-1.9598,-1.9512,-1.952,-1.9523,-1.9431,-1.9448,-1.9419,-1.9385,-1.942,-1.9433,-1.9399,-1.9508,-1.9462,-1.9473,-1.9473,-1.9494,-1.9511,-1.9527,-1.9323,-1.9322,-1.9321,0,0,-1.9801,-1.977,-1.9796,-1.9771,-1.9732,-1.9689,-1.9696,-1.9642,-1.9618,-1.9634,-1.9566,-1.9569,-1.9563,-1.9542,-1.953,-1.9638,-1.9586,-1.9638,-1.9717,-1.9741,-1.9756,-1.9768,-1.9808,-1.9823,-1.9645,-1.9645,-1.9645,0,-1.9883,-1.9884,-1.9817,-1.9829,-1.9818,-1.9733,-1.9761,-1.9741,-1.9702,-1.9697,-1.9659,-1.965,-1.9621,-1.965,-1.9677,-1.967,-1.9676,-1.9643,-1.9759,-1.9771,-1.9781,-1.9818,-1.9833,-1.9652,-1.9651,-1.965,-1.965,0,-1.9987,-1.999,-2.0017,-1.998,-1.9972,-1.9992,-1.9929,-1.9929,-1.9886,-1.9847,-1.9866,-1.9828,-1.9812,-1.9816,-1.9774,-1.984,-1.982,-1.9772,-1.9706,-1.9806,-1.984,-1.9853,-1.9661,-1.9659,-1.9657,-1.9655,0,0,-2.0172,-2.0098,-2.0109,-2.0091,-2.0042,-2.0044,-2.0061,-2.0044,-2.0046,-2.0023,-2.0037,-2.0034,-1.9989,-1.9976,-1.9931,-1.9953,-2.0042,-1.9901,-1.99,-1.993,-2.0114,-2.0151,-2.0168,-2.0007,-2.001,-2.0012,-2.0117,0,-2.0277,-2.03,-2.024,-2.0279,-2.0282,-2.0202,-2.0218,-2.0191,-2.0156,-2.0155,-2.0116,-2.0116,-2.0056,-2.0048,-2.0066,-2.0027,-2.0078,-2.0019,-2.0021,-2.0022,-2.0032,-2.0185,-2.0224,-2.0326,-2.013,-2.0132,-2.0133,0,-2.0401,-2.0383,-2.0422,-2.0372,-2.0371,-2.0385,-2.0365,-2.0364,-2.0333,-2.0306,-2.0293,-2.024,-2.0255,-2.0192,-2.0213,-2.0174,-2.0172,-2.0153,-2.0156,-2.0154,-2.0084,-2.0189,-2.0356,-2.0372,-2.0153,-2.0152,-2.015,0,-2.0533,-2.0518,-2.054,-2.0528,-2.0469,-2.0482,-2.0458,-2.0423,-2.0417,-2.0401,-2.0396,-2.0383,-2.0375,-2.0367,-2.0313,-2.0271,-2.0341,-2.0273,-2.0321,-2.0323,-2.0339,-2.0339,-2.051,-2.0338,-2.0337,-2.0337,-2.0337,0,-2.0656,-2.0683,-2.0598,-2.0612,-2.0641,-2.0573,-2.0604,-2.0573,-2.0543,-2.055,-2.0482,-2.0491,-2.0418,-2.042,-2.0378,-2.0403,-2.04,-2.038,-2.0369,-2.0387,-2.0389,-2.0384,-2.0376,-2.0341,-2.034,-2.0339,-2.0339,0,-2.0808,-2.0752,-2.077,-2.0714,-2.07,-2.0724,-2.0677,-2.0688,-2.0649,-2.066,-2.0658,-2.0598,-2.0596,-2.0541,-2.0529,-2.0501,-2.0544,-2.0519,-2.0554,-2.0546,-2.0598,-2.0594,-2.0772,-2.0792,-2.0607,-2.0609,-2.061,0,-2.089,-2.0909,-2.0855,-2.0854,-2.0833,-2.0833,-2.0827,-2.0761,-2.0758,-2.0724,-2.074,-2.0732,-2.0723,-2.0725,-2.0681,-2.0672,-2.0647,-2.071,-2.0645,-2.0663,-2.0649,-2.0649,-2.0651,-2.0724,-2.0726,-2.0728,-2.073,0,-2.1043,-2.1014,-2.1006,-2.0989,-2.0983,-2.0967,-2.0947,-2.0951,-2.0879,-2.0879,-2.0876,-2.0868,-2.0855,-2.085,-2.0833,-2.081,-2.0759,-2.075,-2.0761,-2.078,-2.0799,-2.079,-2.0592,-2.0747,-2.0745,-2.0744,-2.0743,-2.0742,-2.1162,-2.1176,-2.114,-2.1134,-2.1112,-2.1095,-2.1102,-2.1064,-2.106,-2.1043,-2.1006,-2.1009,-2.0979,-2.095,-2.0933,-2.0936,-2.0905,-2.092,-2.0924,-2.0929,-2.0939,-2.0799,-2.0933,-2.0932,-2.0932,-2.0931,-2.0931,0,-2.1312,-2.1285,-2.128,-2.1253,-2.1249,-2.12,-2.1175,-2.1176,-2.1179,-2.1154,-2.1146,-2.1144,-2.1139,-2.1095,-2.1085,-2.1096,-2.1073,-2.1096,-2.1095,-2.1091,-2.0968,-2.096,-2.1115,-2.1115,-2.1115,-2.1115,-2.1115,-2.1115,-2.1389,-2.141,-2.1377,-2.1387,-2.136,-2.1362,-2.1352,-2.1337,-2.1317,-2.1317,-2.1312,-2.1283,-2.1251,-2.1239,-2.1232,-2.122,-2.122,-2.1251,-2.1231,-2.1117,-2.1099,-2.1082,-2.1074,-2.1252,-2.1252,-2.1354,-2.1355,-2.1356]},{"header":{"parameterUnit":"m.s-1","parameterCategory":1,"la1":30.2991,"la2":30.254,"lo1":-89.0895,"lo2":-89.0444,"dy":0.0017,"dx":0.0017,"nx":28,"ny":28,"refTime":"2023-09-19T21:00:00:Z","depth":0,"parameterNumber":3,"parameterNumberName":"V-component_of_WINDS"},"data":[0,0,0,0,0,0,0,0,0,0,0,0,0,0,0,0,0,0,0,0,0,0,0,0,0,0,0,0,0,0,0,0,0,0,0,0,0,0,0,0,0,0,0,0,0,0,0,0,0,0,0,0,0,0,0,0,0,0,3.3392,3.3391,0,3.3369,3.3369,3.3369,3.3413,3.3414,3.3416,3.3417,3.3389,3.3387,3.3385,0,0,0,0,0,0,0,0,0,0,0,0,0,3.3468,3.3466,3.3392,3.3391,3.3391,3.337,3.3369,3.3369,3.3412,3.3414,3.3416,3.3418,3.3389,3.3387,3.3384,0,0,0,0,0,0,0,0,0,0,0,0,0,3.3439,3.3466,3.3392,3.341,3.3412,3.337,3.3369,3.3369,3.3412,3.3414,3.3416,3.3418,3.339,3.3387,3.3384,3.3321,0,0,3.3374,3.3373,0,0,0,0,0,0,0,0,3.344,3.3436,3.3408,3.3409,3.3411,3.3396,3.3386,3.3353,3.3411,3.3412,3.3417,3.3419,3.3389,3.3386,3.3377,3.332,3.3318,3.3374,3.3372,3.3371,3.337,0,0,0,0,0,0,0,3.3442,3.3437,3.3383,3.3407,3.3409,3.3419,3.3417,3.338,3.3388,3.3412,3.3415,3.3412,3.339,3.338,3.3377,3.3318,3.3374,3.3371,3.3369,3.3368,3.3208,3.3206,0,0,0,0,0,0,3.3443,3.3439,3.3383,3.3382,3.3431,3.3415,3.3414,3.3398,3.3389,3.339,3.341,3.3414,3.3384,3.338,3.3376,3.3301,3.3371,3.3368,3.3366,3.3211,3.3208,3.3205,0,0,0,0,0,0,3.3444,3.3437,3.3384,3.3411,3.3405,3.3412,3.3394,3.3397,3.3387,3.3388,3.3389,3.3398,3.3386,3.338,3.3335,3.33,3.3366,3.3364,3.3213,3.321,3.3206,3.3151,0,0,0,0,0,0,3.3446,3.3438,3.3414,3.341,3.3404,3.3344,3.3392,3.3395,3.3382,3.3387,3.3377,3.3377,3.3387,3.3339,3.3332,3.3297,3.3361,3.3216,3.3212,3.3208,3.3155,3.3146,3.3137,0,0,0,0,0,3.3449,3.3398,3.3413,3.3406,3.3375,3.3342,3.3338,3.3352,3.3379,3.3355,3.3356,3.3378,3.3306,3.3334,3.3326,3.329,3.3218,3.3213,3.3208,3.316,3.3148,3.3137,0,0,0,0,0,0,3.3395,3.3398,3.3414,3.3361,3.3352,3.335,3.332,3.3339,3.332,3.3325,3.3342,3.3339,3.329,3.3286,3.3317,3.3229,3.3267,3.3259,3.3233,3.3221,3.3212,3.3213,3.3359,0,0,0,0,0,3.3378,3.3353,3.3356,3.3309,3.3303,3.3313,3.3299,3.3311,3.33,3.3296,3.3293,3.3281,3.3256,3.3239,3.3216,3.3157,3.3154,3.3128,3.3119,3.3111,3.3104,3.3072,3.306,3.3188,3.3188,3.3188,0,0,3.334,3.3339,3.3321,3.3298,3.3292,3.3264,3.3308,3.3277,3.3256,3.3291,3.3247,3.3246,3.3233,3.318,3.3157,3.3176,3.3069,3.3105,3.3099,3.3095,3.3065,3.3053,3.3042,3.3184,3.3185,3.3185,0,0,3.3258,3.3255,3.3215,3.3209,3.32,3.3207,3.3198,3.3194,3.3194,3.3152,3.3178,3.3153,3.3109,3.31,3.3089,3.3006,3.3024,3.2998,3.2948,3.2917,3.2907,3.2898,3.2867,3.2855,3.2991,3.2991,3.2991,0,3.3211,3.3172,3.3192,3.3159,3.3147,3.3181,3.314,3.3133,3.3116,3.3106,3.3129,3.3076,3.307,3.3015,3.2995,3.2986,3.2974,3.2997,3.2907,3.2898,3.289,3.2861,3.2849,3.2988,3.2988,3.2988,3.2989,0,3.3115,3.3087,3.3056,3.3042,3.3027,3.299,3.3004,3.2987,3.3001,3.3005,3.2962,3.2957,3.2933,3.2922,3.2934,3.2869,3.288,3.2905,3.2942,3.2874,3.2847,3.2836,3.2983,3.2984,3.2985,3.2986,0,0,3.2994,3.2994,3.2981,3.2975,3.297,3.2948,3.2913,3.2892,3.2877,3.2865,3.2835,3.2799,3.2822,3.281,3.2822,3.2795,3.2728,3.2822,3.2822,3.2803,3.2654,3.2634,3.2621,3.2742,3.274,3.2738,3.2655,0,3.2911,3.2852,3.287,3.281,3.2785,3.2817,3.2787,3.2779,3.2783,3.2761,3.2765,3.2739,3.2772,3.2765,3.274,3.2741,3.2698,3.2748,3.2712,3.271,3.2711,3.2606,3.2585,3.2506,3.2644,3.2642,3.2641,0,3.2805,3.2791,3.2729,3.2729,3.2719,3.2691,3.2674,3.2653,3.2646,3.265,3.2638,3.2657,3.2622,3.2662,3.2613,3.2647,3.2634,3.2633,3.263,3.2625,3.2669,3.2596,3.2481,3.2468,3.2624,3.2626,3.2627,0,3.2721,3.2687,3.2646,3.264,3.2639,3.2618,3.2617,3.2612,3.2598,3.2584,3.2575,3.2556,3.2544,3.2529,3.2541,3.257,3.2489,3.2531,3.2491,3.249,3.2469,3.247,3.2348,3.2465,3.2465,3.2466,3.2466,0,3.2624,3.2585,3.2608,3.2582,3.2539,3.2561,3.2517,3.2518,3.2514,3.2488,3.2516,3.2491,3.2511,3.2487,3.2497,3.2454,3.2449,3.2451,3.2453,3.2447,3.2446,3.2436,3.2441,3.2463,3.2463,3.2464,3.2464,0,3.2521,3.2536,3.2493,3.2497,3.2497,3.2464,3.2467,3.2442,3.245,3.2417,3.2411,3.2421,3.2396,3.2408,3.238,3.2387,3.2331,3.2342,3.2334,3.2336,3.2294,3.2297,3.2159,3.2141,3.2272,3.2271,3.227,0,3.2457,3.2428,3.243,3.2415,3.2412,3.2389,3.2377,3.2397,3.2383,3.2373,3.235,3.2327,3.2309,3.2266,3.2271,3.225,3.2259,3.2212,3.2256,3.225,3.2256,3.2256,3.2253,3.2202,3.2201,3.22,3.2199,0,3.2342,3.2351,3.2333,3.2317,3.2302,3.2291,3.2281,3.2268,3.2288,3.2271,3.2246,3.2232,3.2206,3.2182,3.2164,3.2161,3.2182,3.2186,3.2175,3.2166,3.2162,3.2162,3.2307,3.2188,3.2189,3.219,3.219,3.2191,3.2255,3.2231,3.2228,3.2207,3.2203,3.2194,3.2172,3.2178,3.2158,3.2138,3.2152,3.2122,3.2116,3.2095,3.209,3.2066,3.2084,3.2069,3.2064,3.206,3.2053,3.2169,3.2063,3.2063,3.2064,3.2064,3.2064,0,3.2139,3.214,3.2121,3.2108,3.2091,3.2117,3.2108,3.2092,3.2066,3.206,3.2043,3.2014,3.1992,3.1996,3.1976,3.1956,3.1965,3.1949,3.195,3.1948,3.2039,3.2049,3.1942,3.1942,3.1942,3.1942,3.1942,3.1942,3.2077,3.2037,3.2046,3.2004,3.2005,3.1978,3.197,3.1962,3.1957,3.1925,3.1907,3.1911,3.1909,3.1889,3.1869,3.1871,3.1861,3.1842,3.1846,3.193,3.1942,3.1953,3.1963,3.184,3.184,3.1758,3.1757,3.1756]}]]